TIME,DELAY(SENSOR),PRES,T(CTD),SAL,OXYGEN,RAWTEMP,T(OPTODE),TCPHASE,TURBIDITY,TURBIDITY_GAIN,FLUOR,BETA,CDOM,ED411.5,ED443.8,ED489.6,PAR,COMP,TILT,TILTY(TILT),CHECK
1340793614,6469,260.5799865722656000,5.5819997787475590,34.8571014404296900,334.2237854003906000,634.0194702148438000,5.5681271553039550,33.0195007324218750,16,3,48,103,63,2147635080,2147395240,2147285988,2148318573,133,2,-4,32152
1340793675,6470,257.5299987792969000,5.5798997879028320,34.8545989990234400,333.8481140136719000,634.1489257812500000,5.5639438629150390,33.0350608825683600,16,3,48,102,64,2147637417,2147393503,2147284063,2148320310,3353,2,-4,38366
1340793736,6468,254.5399932861328000,5.5763998031616210,34.8515014648437500,332.8718872070312500,634.3986816406250000,5.5558638572692870,33.0734291076660160,16,3,49,102,64,2147635112,2147395345,2147283958,2148321055,2874,2,-4,47255
1340793797,6467,251.6699981689453000,5.5556001663208010,34.8454017639160160,332.7565917968750000,634.8707275390625000,5.5406041145324710,33.0859298706054700,16,3,48,103,63,2147635099,2147397722,2147285955,2148319766,2527,2,-4,22091
1340793858,6467,248.8800048828125000,5.5539999008178710,34.8424987792968750,334.2069091796875000,635.0404052734375000,5.5351119041442870,33.0382804870605500,16,3,48,108,64,2147636640,2147397316,2147284393,2148317247,2303,2,-4,10670
1340793919,6470,246.1999969482422000,5.5451002120971680,34.8366012573242200,335.2484130859375000,635.3088989257812000,5.5264282226562500,33.0066299438476560,16,3,48,105,62,2147636562,2147395355,2147282952,2148318563,2057,2,-4,45408
1340793980,6468,243.6399993896484400,5.5336999893188480,34.8336982727050800,336.5976867675781000,635.6768188476562000,5.5145277976989750,32.9662399291992200,16,3,50,104,63,2147632648,2147392529,2147286733,2148318669,1863,2,-4,52968
1340794041,6467,241.1300048828125000,5.5254998207092285,34.8306999206543000,338.3623962402344000,635.8989257812500000,5.5073428153991700,32.9092712402343750,16,3,48,102,63,2147633723,2147394559,2147284027,2148319172,1699,2,-4,28656
1340794102,6469,238.7500000000000000,5.5208001136779785,34.8291015625000000,339.1141052246094000,636.0424804687500000,5.5026950836181640,32.8861694335937500,16,3,48,105,64,2147634267,2147395254,2147285311,2148322495,1535,2,-4,18037
1340794163,6467,236.4799957275390600,5.5145998001098630,34.8273010253906250,339.3362121582031000,636.2551879882812000,5.4958128929138180,32.8823204040527340,16,3,50,106,64,2147635963,2147394820,2147283117,2148318870,1200,2,-4,43706
1340794254,6468,232.5500030517578000,5.5015001296997070,34.8224983215332000,339.7952880859375000,636.7406005859375000,5.4801077842712400,32.8751106262207000,16,3,48,104,63,2147633635,2147394500,2147283734,2148321123,501,2,-4,18299
1340794315,6467,229.1600036621093800,5.4720001220703125,34.8112983703613300,340.3021850585937500,637.5952758789062000,5.4524459838867190,32.8731307983398440,16,3,49,103,64,2147636859,2147395290,2147285850,2148319771,3140,2,-4,12613
1340794378,6467,225.6900024414062500,5.4604001045227050,34.8041992187500000,339.9030151367187500,637.9121704101562000,5.4421858787536620,32.8925094604492200,16,3,48,106,64,2147636132,2147393686,2147282518,2148319025,2749,2,-4,43388
1340794439,6469,222.3600006103515600,5.4549999237060550,34.7991981506347660,339.8474121093750000,638.1828002929688000,5.4334259033203125,32.8993492126464840,16,3,48,104,63,2147637032,2147393243,2147283930,2148318394,2401,2,-4,24661
1340794502,6469,218.8699951171875000,5.4590001106262210,34.7946014404296900,338.8577880859375000,637.6826782226562000,5.4496169090271000,32.9242706298828100,16,3,49,105,64,2147636200,2147393750,2147283049,2148318870,2007,1,-4,40160
1340794563,6469,215.3800048828125000,5.5363998413085940,34.7998008728027340,336.0624084472656000,635.7874145507812000,5.5109500885009770,32.9868087768554700,16,3,49,106,64,2147638221,2147396287,2147284054,2148320031,1603,2,-4,7468
1340794626,6468,211.5899963378906200,5.5064001083374020,34.7918014526367200,335.3295898437500000,636.6834716796875000,5.4819560050964355,33.0283203125000000,16,3,48,107,64,2147631451,2147393823,2147286326,2148321014,1362,2,-4,55495
1340794687,6467,207.7299957275390600,5.5156002044677730,34.7863998413085940,336.8554992675781000,636.2919921875000000,5.4946231842041020,32.9684715270996100,16,3,48,108,64,2147637490,2147395753,2147285352,2148323711,994,2,-4,55304
1340794774,6468,202.5399932861328000,5.5185999870300290,34.7798004150390600,338.4074096679687500,636.1701049804688000,5.4985690116882320,32.9125099182128900,16,3,49,108,64,2147636749,2147393942,2147286344,2148319314,762,2,-4,11246
1340794835,6468,199.6600036621093800,5.5156998634338380,34.7773017883300800,339.3117065429687500,636.2539062500000000,5.4958567619323730,32.8832206726074200,16,3,50,107,64,2147638248,2147395062,2147288735,2148320154,481,1,-4,23098
1340794898,6467,196.7200012207031200,5.5313000679016110,34.7764015197753900,339.8713989257812500,635.8610229492188000,5.5085678100585940,32.8570404052734400,16,3,48,106,64,2147639176,2147397581,2147282358,2148319163,3417,2,-4,10778
1340794959,6467,193.8899993896484400,5.5413999557495120,34.7737998962402340,340.3763122558594000,635.4968261718750000,5.5203499794006350,32.8330116271972660,16,3,49,106,64,2147635405,2147393663,2147285055,2148316881,3112,0,-4,37074
1340795022,6467,191.0200042724609400,5.5595998764038090,34.7742996215820300,340.8291931152344000,634.9755859375000000,5.5372071266174320,32.8083610534668000,15,3,50,108,64,2147634746,2147397343,2147287378,2148318994,3133,2,-4,40916
1340795083,6467,188.2400054931640600,5.5700001716613770,34.7719993591308600,340.8182983398437500,634.6052246093750000,5.5491871833801270,32.8023796081543000,15,3,50,108,64,2147638226,2147392218,2147290061,2148320886,2986,2,-4,54626
1340795146,6468,185.3500061035156200,5.5977001190185550,34.7742004394531250,340.3945007324219000,633.4819946289062000,5.5855050086975100,32.7966003417968750,16,3,50,108,63,2147634738,2147392447,2147291880,2148320278,2646,2,-4,41385
1340795207,6468,182.6000061035156200,5.6570000648498535,34.7779998779296900,339.9301147460937500,632.1668701171875000,5.6280097961425780,32.7895812988281250,16,3,50,108,64,2147636246,2147395450,2147296726,2148319913,2753,2,-4,28751
1340795270,6469,179.7799987792968800,5.6581997871398930,34.7751007080078100,339.8030090332031000,631.9561157226562000,5.6348209381103520,32.7901496887207000,16,3,50,107,64,2147629718,2147394189,2147291199,2148318344,2550,2,-4,20102
1340795331,6468,177.0000000000000000,5.6518001556396480,34.7742004394531250,339.9786987304687500,632.0338134765625000,5.6323089599609375,32.7855110168457000,16,3,49,108,64,2147635112,2147393476,2147291711,2148321393,2521,2,-4,49768
1340795394,6468,174.0700073242187500,5.6739001274108890,34.7742996215820300,339.7349853515625000,631.4404296875000000,5.6514840126037600,32.7830810546875000,16,3,49,108,64,2147633362,2147395309,2147287821,2148320864,2530,2,-4,28263
1340795455,6467,171.1999969482422000,5.7225999832153320,34.7764015197753900,338.8507080078125000,630.1154785156250000,5.6942729949951170,32.7897911071777340,16,3,50,106,64,2147631213,2147392557,2147293010,2148318253,2439,2,-4,42391
1340795518,6467,168.2599945068359400,5.7410001754760740,34.7779998779296900,339.0409851074219000,629.4843750000000000,5.7146511077880860,32.7723197937011700,16,3,50,107,64,2147635505,2147393096,2147294244,2148322751,2206,2,-4,30550
1340795579,6468,165.4499969482422000,5.7399997711181640,34.7775993347168000,339.2098083496094000,629.3572998046875000,5.7187561988830570,32.7642707824707000,16,3,50,106,64,2147634481,2147393357,2147293745,2148318116,2066,1,-4,54305
1340795642,6470,162.6199951171875000,5.7340002059936520,34.7729988098144500,338.0747070312500000,629.4597778320312000,5.7154479026794430,32.8049888610839840,15,3,50,107,64,2147635030,2147395180,2147294651,2148320767,2136,2,-4,3813
1340795703,6468,159.9600067138672000,5.7392001152038570,34.7719993591308600,336.4800109863281000,629.1846923828125000,5.7243289947509770,32.8552284240722660,16,3,50,105,64,2147636804,2147396077,2147296566,2148319629,2147,1,-4,36940
1340795766,6469,157.2500000000000000,5.7592000961303710,34.7741012573242200,335.4538879394531000,628.8588867187500000,5.7348442077636720,32.8850212097168000,16,3,50,108,64,2147636383,2147392328,2147294577,2148319624,2039,1,-4,19403
1340795827,6466,154.6600036621093800,5.7506999969482420,34.7701988220214840,334.3953857421875000,628.8682250976562000,5.7345471382141110,32.9219284057617200,16,3,50,106,64,2147635761,2147394550,2147295894,2148320008,1856,0,-4,58009
1340795890,6469,152.0500030517578000,5.7690000534057620,34.7695007324218750,333.1224060058594000,628.4616699218750000,5.7476649284362790,32.9590492248535160,16,3,50,105,64,2147633795,2147392447,2147298874,2148321041,1667,2,-4,24089
1340795951,6467,149.6900024414062500,5.7930002212524410,34.7705001831054700,331.4684143066406000,627.8759155273438000,5.7665710449218750,33.0068702697753900,16,3,50,108,64,2147635332,2147398609,2147301672,2148321805,1262,0,-4,28848
1340796038,6469,145.9100036621093800,5.8081002235412600,34.7695999145507800,329.1435852050781000,627.2310180664062000,5.7873778343200680,33.0774497985839840,16,3,50,105,64,2147635267,2147393324,2147307972,2148321892,567,2,-4,32546
1340796099,6467,142.4700012207031200,5.8474001884460450,34.7696990966796900,326.0739135742187500,626.1157836914062000,5.8233509063720700,33.1674880981445300,16,3,49,104,64,2147637979,2147396895,2147307862,2148322852,321,2,-4,55128
1340796162,6467,139.1100006103515600,5.8715000152587890,34.7658004760742200,320.9176940917969000,625.3170166015625000,5.8491129875183105,33.3399696350097660,16,3,49,104,66,2147633457,2147395642,2147304237,2148322043,3535,1,-4,51395
1340796223,6466,136.2200012207031200,5.8891000747680660,34.7625007629394500,316.3481140136719000,624.7094116210938000,5.8687019348144530,33.4970893859863300,16,3,50,102,64,2147638120,2147396379,2147303236,2148321311,3075,2,-4,32837
1340796286,6469,133.4799957275390600,5.9095997810363770,34.7603988647460940,313.1018066406250000,624.0341186523438000,5.8904671669006350,33.6065101623535160,16,3,50,101,66,2147636187,2147394646,2147306358,2148321384,2740,2,-4,29478
1340796347,6467,131.0399932861328000,5.9566998481750490,34.7591018676757800,310.9812011718750000,622.7487182617188000,5.9318871498107910,33.6633186340332000,16,3,50,104,66,2147636145,2147394633,2147304218,2148320836,2508,0,-4,37003
1340796410,6467,128.7400054931640600,5.9812002182006840,34.7571983337402340,310.5560913085937500,621.7794189453125000,5.9631118774414060,33.6625900268554700,16,3,50,100,64,2147636292,2147396520,2147310271,2148323304,2502,0,-4,40162
1340796471,6465,126.6200027465820300,6.0145998001098630,34.7570991516113300,309.6900939941406000,620.9462280273438000,5.9899430274963380,33.6805992126464840,16,3,50,104,65,2147635113,2147398764,2147315273,2148323939,2151,1,-4,802
1340796560,6468,122.9899978637695300,6.0745000839233400,34.7608985900878900,314.8500061035156000,619.0493164062500000,6.0510029792785645,33.4528503417968750,16,3,50,103,66,2147634541,2147397832,2147318317,2148322340,1414,2,-4,22209
1340796621,6468,119.7500000000000000,6.1119999885559080,34.7560005187988300,311.0614929199219000,617.9257202148438000,6.0871510505676270,33.5749702453613300,16,3,50,102,66,2147635647,2147395661,2147325430,2148324392,1059,0,-4,27605
1340796684,6468,116.4800033569336000,6.1311001777648930,34.7492980957031250,310.4614868164062500,617.1884765625000000,6.1108632087707520,33.5845108032226560,16,3,50,101,66,2147639149,2147398244,2147330947,2148323807,636,2,-4,18043
1340796745,6469,113.4100036621093800,6.1830000877380370,34.7476005554199200,310.5046997070312500,615.6743164062500000,6.1595520973205570,33.5563087463378900,16,3,50,101,66,2147638792,2147398175,2147334559,2148325330,3503,0,-4,38098
1340796808,6466,110.3300018310546900,6.2328000068664550,34.7481002807617200,311.1583862304687500,614.1218261718750000,6.2094459533691410,33.5040893554687500,16,3,50,102,66,2147634884,2147400612,2147338244,2148323693,2858,1,-4,62847
1340796869,6467,107.4700012207031200,6.2645001411437990,34.7448005676269500,311.7492980957031000,612.9205932617188000,6.2480340003967285,33.4608993530273440,16,3,50,102,66,2147637805,2147398545,2147344384,2148326628,2560,2,-4,53931
1340796932,6467,104.5999984741211000,6.3734002113342285,34.7424011230468750,315.6606140136719000,609.7822875976562000,6.3487820625305180,33.2598114013671900,16,3,52,103,64,2147634596,2147398052,2147336228,2148326326,2331,2,-4,14365
1340796993,6469,102.0199966430664000,6.3987998962402340,34.7417984008789060,319.9343872070312500,608.8909301757812000,6.3773798942565920,33.0871200561523440,16,3,52,103,64,2147635363,2147395611,2147334331,2148328200,2165,0,-4,24059
1340797056,6468,99.3899993896484400,6.4425997734069820,34.7365989685058600,321.2637023925781000,607.5490722656250000,6.4204177856445310,33.0157508850097660,16,3,54,105,64,2147634774,2147394843,2147325974,2148327107,1807,2,-4,59531
1340797117,6467,96.8899993896484400,6.5001001358032230,34.7341995239257800,321.2236938476562500,605.7631835937500000,6.4776649475097660,32.9860801696777340,16,3,54,104,65,2147637778,2147394605,2147321996,2148323601,1530,2,-4,64813
1340797180,6467,94.2799987792968800,6.5570998191833500,34.7319984436035160,321.9020080566406000,604.0532226562500000,6.5324549674987790,32.9321517944335940,16,3,56,109,64,2147632562,2147395528,2147317769,2148323428,1529,1,-4,27639
1340797241,6468,91.6999969482421900,6.6073999404907230,34.7280006408691400,323.1488952636719000,602.2307128906250000,6.5908198356628420,32.8558006286621100,16,3,58,106,65,2147638994,2147395752,2147312708,2148323908,1314,2,-4,30819
1340797304,6468,89.0999984741211000,6.7142000198364260,34.7294998168945300,325.3207092285156000,599.5059204101562000,6.6780171394348145,32.7310218811035160,16,3,60,105,66,2147636918,2147395382,2147312840,2148324328,758,2,-4,15152
1340797365,6467,86.4199981689453100,6.7179999351501465,34.7256011962890600,325.1893005371094000,598.8995971679688000,6.6974091529846190,32.7253494262695300,15,3,58,106,64,2147635656,2147396109,2147311396,2148324625,373,1,-4,61754
1340797428,6468,83.4000015258789000,6.7726001739501950,34.7201995849609400,325.0105895996094000,597.1406250000000000,6.7536511421203610,32.7020492553710940,16,3,61,115,64,2147636077,2147395359,2147314979,2148323638,51,2,-4,36552
1340797489,6467,80.1500015258789000,6.8144001960754395,34.7075996398925800,325.9161987304687500,595.8767089843750000,6.7940459251403810,32.6477699279785160,16,3,60,107,64,2147634842,2147397860,2147323423,2148329220,3014,2,-4,45172
1340797552,6469,76.4400024414062500,6.8517999649047850,34.7033004760742200,326.9400024414062500,594.7064208984375000,6.8314361572265625,32.5915489196777340,16,3,61,115,65,2147633595,2147398664,2147336291,2148332680,2815,2,-4,16407
1340797613,6467,72.4100036621093800,6.8899002075195310,34.7010002136230500,327.7452087402344000,593.6497192382812000,6.8651828765869140,32.5453605651855500,16,3,60,109,66,2147636817,2147399734,2147363638,2148336726,2597,2,-4,12702
1340797699,6465,67.0000000000000000,7.0159997940063480,34.7009010314941400,328.3493041992187500,590.7764892578125000,6.9568958282470700,32.4753112792968750,16,3,66,113,65,2147639808,2147407016,2147432863,2148357759,1838,2,-4,49424
1340797760,6469,64.5599975585937500,7.0536999702453610,34.7030982971191400,328.3682861328125000,589.0012207031250000,7.0135231018066410,32.4445991516113300,16,3,66,118,64,2147638783,2147421005,2147496543,2148376950,1749,2,-4,43201
1340797823,6466,62.7799987792968750,7.0931000709533690,34.6948013305664060,328.7427978515625000,587.6688842773438000,7.0560040473937990,32.4090614318847660,16,3,67,117,65,2147643492,2147424922,2147531167,2148390500,1694,2,-4,43055
1340797896,6467,61.4599990844726560,7.1142001152038570,34.6902999877929700,329.0591125488281000,586.8438110351562000,7.0823001861572270,32.3839302062988300,16,3,70,117,64,2147639899,2147424785,2147540260,2148393000,1640,2,-4,37773
1340797994,6469,58.7500000000000000,7.2628998756408690,34.6876983642578100,329.5723876953125000,581.9995117187500000,7.2365818023681640,32.2849998474121100,15,3,70,122,66,2147643533,2147428945,2147558308,2148399907,1268,2,-4,55869
1340798055,6466,55.5400009155273440,7.4099001884460450,34.6918983459472660,329.8947143554687500,577.4838867187500000,7.3801989555358890,32.1983299255371100,16,3,72,130,66,2147647560,2147439405,2147612950,2148421471,1176,2,-4,30434
1340798118,6468,51.9700012207031250,7.5373997688293460,34.7014999389648440,329.9656066894531000,573.8167114257812000,7.4966979026794430,32.1351585388183600,16,3,75,128,65,2147652392,2147459240,2147708703,2148455844,377,2,-4,39495
1340798179,6467,48.6500015258789060,7.7522001266479490,34.6949996948242200,329.4241027832031000,567.2514038085938000,7.7049708366394040,32.0460700988769500,16,3,80,129,66,2147656758,2147477723,2147779245,2148487779,510,1,-4,30760
1340798242,6468,45.8400001525878900,8.0364999771118160,34.6841011047363300,328.7609863281250000,557.9581298828125000,7.9991421699523930,31.9171600341796880,16,3,86,130,66,2147666811,2147499519,2147883821,2148535811,595,2,-4,2213
1340798303,6467,43.9799995422363300,8.1638002395629880,34.6954002380371100,329.1560974121094000,555.9686889648438000,8.0620203018188480,31.8714408874511720,20,3,93,138,66,2147678550,2147526792,2147988891,2148578806,3060,2,-4,14524
1340798393,6469,41.4199981689453100,8.4928998947143550,34.6871986389160160,327.9249877929687500,542.8679809570312000,8.4752578735351560,31.7034606933593750,17,3,103,179,66,2147683126,2147539821,2148047121,2148628936,2386,1,-4,5899
1340798454,6470,38.9199981689453100,8.7243003845214840,34.6785011291503900,327.9675903320312500,535.5404052734375000,8.7057857513427730,31.5856304168701170,18,3,126,163,66,2147691395,2147544086,2148051519,2148652735,1948,2,-4,25990
1340798543,6470,34.8300018310546900,9.3178997039794920,34.6716995239257800,328.1991882324219000,517.9854125976562000,9.2563600540161130,31.3022098541259770,30,3,185,187,66,2147713836,2147571930,2148110431,2148720260,908,1,-4,19279
1340798604,6471,31.8700008392334000,9.8386001586914060,34.6571998596191400,328.0940856933594000,499.9696960449219000,9.8190002441406250,31.0287895202636720,56,3,812,337,68,2147768305,2147664808,2148401937,2148856607,674,0,-4,34726
1340798667,6471,29.3199996948242200,10.2503995895385740,34.6526985168457000,331.0956115722656000,486.8245849609375000,10.2280902862548830,30.7278709411621100,269,3,1748,613,70,2147923780,2147970408,2149256964,2149191949,567,1,-4,53113
1340798728,6470,27.5400009155273440,11.0783996582031250,34.6585006713867200,338.4390869140625000,460.5115051269531000,11.0435895919799800,30.0946998596191400,92,3,1169,498,70,2148054445,2148203263,2149854075,2149426262,1221,1,-5,34467
1340798817,6471,25.4699993133544920,11.5364999771118160,34.6757011413574200,348.7517089843750000,445.6585998535156000,11.5020503997802730,29.5497894287109380,79,3,630,470,68,2148347030,2148667930,2150849353,2149843775,1328,0,-4,10995
1340798878,6469,22.8099994659423830,11.8450002670288090,34.6907005310058600,350.7265930175781000,432.0416870117187500,11.9212703704833980,29.2952499389648440,78,3,591,464,68,2148785672,2149306184,2152071885,2150371821,955,2,-5,10676
1340798968,6471,19.0100002288818360,12.9296998977661130,34.7028007507324200,345.3861999511719000,399.8399047851562500,12.9089097976684570,29.0160808563232420,89,3,462,544,63,2149940886,2150927816,2154875345,2151621279,471,2,-6,9954
1340799029,6470,16.0000000000000000,13.0499000549316400,34.7159996032714840,343.0694885253906000,395.4339904785156000,13.0436601638793950,29.0287895202636720,86,3,432,543,63,2152449951,2154327779,2160567949,2154256036,775,2,-5,53504
1340799092,6470,12.3199996948242190,13.0598001480102540,34.7162017822265600,342.3499145507812500,394.9851989746094000,13.0573902130126950,29.0456504821777340,88,3,409,528,61,2158555515,2161950764,2171521051,2159656954,543,1,-4,65212
1340799153,6469,8.6000003814697270,13.0581998825073240,34.7168006896972660,342.2937927246094000,394.9187011718750000,13.0594196319580080,29.0464401245117200,85,3,396,527,63,2171932538,2177278601,2190316731,2170166998,88,2,-7,57111
1340799232,6471,4.3200001716613770,13.0523996353149410,34.7172012329101560,342.3988037109375000,395.0004882812500000,13.0569200515747070,29.0443000793457030,89,3,306,486,62,2201486714,2208904653,2224660086,2194006975,3287,-5,-14,57864
1340799293,6469,3.4200000762939453,0.0000000000000000,0.0000000000000000,342.4663085937500000,395.1004028320312500,13.0538597106933600,29.0435009002685550,82,3,278,525,62,2210390385,2218457462,2235242463,2201750367,1312,-4,1,1592
